Regional Weather Roundup
Issued by NWS

Home | Current Version | Previous Version | Text Only | Print | Product List | Glossary Off
Versions: 1 2 3 4 5 6 7 8 9 10 11 12 13 14 15 16 17 18 19 20 21 22 23 24 25 26 27 28 29 30 31 32 33 34 35 36 37 38 39 40 41 42 43 44 45 46 47 48 49 50

000
ASUS43 KLSX 050707
RWRMO

WEATHER SUMMARY FOR MISSOURI
NATIONAL WEATHER SERVICE SPRINGFIELD MO
200 AM CDT THU MAY 05 2016

NOTE: "FAIR" INDICATES FEW OR NO CLOUDS BELOW 12,000 FEET WITH NO
       SIGNIFICANT WEATHER AND/OR OBSTRUCTIONS TO VISIBILITY.
       CURRENT SKY AND/OR WEATHER CONDITIONS ARE NOT AVAILABLE FOR
       CHILLICOTHE AND FARMINGTON.

MOZ001>031-035>038-043-044-053-054-050800-
...NORTHERN AND WESTERN MISSOURI...

CITY           SKY/WX    TMP DP  RH WIND       PRES   REMARKS
KANSAS CTY INT CLEAR     52  39  61 NW6       30.01S
KANSAS C DTWN  CLEAR     51  43  74 CALM      30.01R
LEE`S SUMMIT   CLEAR     54  38  54 W3        30.01S
ST JOSEPH      CLEAR     43  41  93 N3        30.01S
CHILLICOTHE      N/A     52  40  63 VRB3      29.99S
KIRKSVILLE     CLEAR     48  36  63 N7        29.96S

$$
MOZ066>068-077>081-088>096-101>105-050800-
...SOUTHWEST MISSOURI...

CITY           SKY/WX    TMP DP  RH WIND       PRES   REMARKS
SPRINGFIELD    CLEAR     47  38  71 CALM      29.99S
JOPLIN         PTCLDY    46  43  89 CALM      30.02S

$$
MOZ032>034-039>042-045>050-055>058-069>072-050800-
...CENTRAL MISSOURI...

CITY           SKY/WX    TMP DP  RH WIND       PRES   REMARKS
COLUMBIA       CLEAR     49  38  65 NW7       29.94S
JEFFERSON CITY CLEAR     47  40  76 NW3       29.94F
ROLLA          CLEAR     50  36  58 W8        29.92F
SEDALIA        CLEAR     53  38  56 W8        29.98F
WHITEMAN AFB   CLEAR     48  40  75 W5        29.97F
WARRENSBURG    CLEAR     48  41  76 W3        29.99F
OSAGE BEACH    CLEAR     45  34  65 W3        29.96F

$$
MOZ051-052-059>065-050800-
...EAST CENTRAL MISSOURI...

CITY           SKY/WX    TMP DP  RH WIND       PRES   REMARKS
ST LOUIS INTL  PTCLDY    50  38  63 W7        29.89F
SPIRIT OF STL  CLEAR     50  40  68 NW5       29.89F
ST CHARLES     PTCLDY    51  42  71 W9        29.88F

$$
MOZ072>076-082>087-097>100-106>115-050800-
...SOUTH CENTRAL AND SOUTHEAST MISSOURI...

CITY           SKY/WX    TMP DP  RH WIND       PRES   REMARKS
CAPE GIRARDEAU PTCLDY    45  42  89 CALM      29.87F
FARMINGTON     CLEAR     52  36  54 NW9       29.89F
POPLAR BLUFF   CLEAR     51  39  63 W6        29.90F
WEST PLAINS    CLEAR     48  35  60 W5        29.97F

$$


USA.gov is the U.S. government's official web portal to all federal, state and local government web resources and services.